Location: Fontevrault
(47.1823°N, 0.0493°E)
Time: 09:08:00
(UTC+00:00)

Meteor 1-21 Rocket - Pass Details

Date: 16 June 2021
Orbit: 834 x 907 km, 81.2° (Epoch: 03 August)

Event Time Altitude Azimuth Distance (km) Brightness Sun altitude
Exits shadow 23:39:35 35° 185° (S) 1,342 4.7 -19.3°
Maximum altitude 23:42:05 85° 100° (E) 865 4.2 -19.3°
Drops below altitude 10° 23:47:49 10° 12° (NNE) 2,523 7.8 -19.4°
Sets 23:50:17 0° 12° (NNE) 3,477 8.8 -19.4°
